Location: Zagreb
(45.8000°N, 16.0000°E)
Time: 00:55:49
(UTC+02:00)

Transit 2A Rocket - Pass Details

Date: 24 January 2022
Orbit: 592 x 909 km, 66.7° (Epoch: 26 May)

Event Time Altitude Azimuth Distance (km) Brightness Sun altitude
Rises 03:41:50 0° 326° (NNW) 3,458 - -38.9°
Reaches altitude 10° 03:44:25 10° 327° (NNW) 2,479 - -38.5°
Maximum altitude 03:50:10 87° 58° (ENE) 804 - -37.5°
Drops below altitude 10° 03:55:22 10° 147° (SSE) 2,255 - -36.6°
Exits shadow 03:56:13 - 148° (SSE) 2,581 7.9 -36.5°
Sets 03:57:37 0° 148° (SSE) 3,124 8.4 -36.2°
